Lapse_Rate
8.5 9.5 9.6 9.5 8.9 8.5 8.8 9.0 9.6 9.4 9.6 9.6 9.5 8.6 8.5 9.0 9.1 9.3 9.5 9.5 9.4 9.5 9.3 9.2 9.0 8.7 8.5 8.3 8.2 8.3 8.4 8.4 8.3 8.0 7.8 7.5 7.2 7.2 7.2 7.5 7.3 6.5 6.4 6.6
8.5 8.6 9.4 9.6 9.6 9.6 9.2 8.6 8.6 8.9 8.8 9.5 9.6 8.5 8.4 8.6 9.1 9.4 9.6 9.5 9.5 9.5 9.4 9.2 9.1 8.9 8.7 8.5 8.5 8.3 8.4 8.2 8.1 8.0 7.7 7.6 7.7 7.8 7.7 7.8 7.3 6.5 6.5 6.6
8.3 9.1 9.3 9.5 9.5 9.6 9.4 8.9 8.4 8.3 8.3 8.6 8.7 8.3 8.0 8.2 8.8 9.1 9.6 9.6 9.4 9.4 9.5 9.4 9.4 9.2 9.0 8.8 8.4 8.2 8.4 8.3 8.2 7.9 8.0 8.1 8.3 8.4 8.5 8.1 7.3 6.9 6.6 6.4
8.5 9.4 9.6 9.3 9.5 9.4 9.5 9.5 8.7 8.4 8.4 8.5 7.9 8.1 8.3 8.4 8.8 9.2 9.5 9.6 9.5 9.5 9.5 9.6 9.5 9.3 8.9 8.6 8.4 8.4 8.4 8.2 8.1 8.2 8.3 8.2 8.2 8.3 8.1 7.8 7.4 7.1 6.9 6.5
9.2 9.4 9.5 9.5 9.4 8.8 9.1 8.9 8.9 8.7 8.5 8.1 8.4 8.1 7.7 8.2 8.6 9.1 9.4 9.5 9.6 9.6 9.5 9.5 9.4 9.4 9.0 8.7 8.5 8.5 8.4 8.3 8.5 8.2 8.2 8.2 8.2 8.1 8.1 7.7 7.5 7.4 6.8 6.6
9.2 9.3 9.4 7.9 8.4 8.4 8.7 8.5 8.8 8.8 8.4 8.4 8.2 8.0 7.6 8.3 8.8 9.2 9.4 9.6 9.6 9.6 9.5 9.5 9.4 9.3 9.1 9.0 8.9 8.6 8.4 8.3 8.1 7.9 7.8 7.8 7.5 7.9 8.0 7.7 7.2 7.2 6.8 6.8
8.6 9.3 9.3 8.4 8.6 8.4 8.2 8.8 8.9 9.0 8.6 8.5 8.3 7.9 8.4 8.4 8.9 9.2 9.5 9.6 9.6 9.5 9.4 9.5 9.4 9.3 9.1 8.8 8.6 8.5 8.2 8.0 7.8 7.4 7.2 7.5 7.9 7.8 8.1 7.5 7.0 7.2 6.9 7.0
9.2 9.0 9.3 8.2 7.8 8.1 8.3 8.0 8.6 8.7 8.8 8.0 8.5 8.7 8.8 8.7 9.1 9.4 9.4 9.4 9.5 9.4 9.4 9.4 9.2 8.9 8.7 8.7 8.7 8.3 7.9 7.7 7.4 7.3 7.3 7.8 7.7 7.1 7.4 7.6 7.2 7.0 7.0 6.7
8.4 8.8 7.8 7.9 7.8 8.0 8.7 7.7 7.2 8.1 8.6 8.6 8.6 8.7 9.0 8.8 9.1 9.2 9.0 9.1 9.1 9.0 8.8 8.7 8.6 8.5 8.6 8.6 7.9 7.9 7.7 7.5 7.1 7.7 7.7 7.8 7.7 7.3 6.8 7.2 7.1 6.8 6.7 6.5
7.9 7.4 7.6 7.5 7.5 8.0 8.4 6.9 6.7 6.6 6.7 6.6 7.2 7.9 7.7 8.4 8.9 9.0 8.6 8.3 8.3 8.2 8.1 8.1 8.0 7.9 7.8 7.7 7.7 7.5 7.7 7.6 7.5 7.5 7.5 7.2 6.6 6.6 6.8 6.9 6.8 6.5 6.3 6.2
6.2 7.2 6.8 6.6 6.8 6.6 6.6 6.2 5.7 6.0 6.1 5.9 6.7 7.1 7.2 7.5 7.6 7.6 8.0 7.8 7.8 7.7 7.7 7.6 7.5 7.4 7.4 7.3 7.2 7.1 7.2 7.5 7.3 7.3 7.0 6.8 6.6 6.5 6.4 6.3 6.5 6.3 6.2 6.2
6.8 6.7 6.8 6.7 6.4 5.8 6.2 6.7 6.3 6.5 6.6 6.6 6.7 6.8 6.9 7.2 7.4 7.4 7.5 7.8 7.8 7.6 7.6 7.5 7.5 7.6 7.7 7.8 7.8 7.7 7.7 7.6 6.9 6.8 6.7 6.4 6.6 6.5 6.3 6.4 6.1 6.0 6.1 6.1
5.9 6.7 6.7 6.5 6.4 6.5 6.6 6.6 6.7 6.7 6.7 6.8 6.6 6.5 6.6 6.8 7.0 7.0 7.1 7.3 7.6 7.9 7.9 8.0 7.5 7.2 7.0 7.0 7.3 6.9 6.8 6.7 6.6 6.4 6.7 6.9 6.6 6.4 6.2 6.1 6.0 5.9 5.9 5.9
6.4 6.3 6.6 6.2 6.3 5.3 6.0 5.9 6.1 6.7 6.7 6.8 7.1 7.1 6.7 6.6 6.6 6.7 7.0 7.4 7.5 7.9 7.6 7.5 7.2 7.2 7.0 7.1 7.2 6.8 6.6 6.3 6.2 6.4 6.4 6.4 6.3 6.0 6.0 6.0 5.8 5.8 6.0 6.1
6.3 6.0 6.1 6.0 5.0 5.3 4.4 5.1 6.1 5.9 6.3 6.4 6.4 6.4 6.4 6.3 6.6 6.8 6.9 6.8 6.9 6.8 7.0 6.7 6.4 6.7 6.4 5.9 6.1 6.0 6.2 6.3 6.3 6.3 6.3 6.2 6.1 6.3 6.2 6.2 6.2 6.3 6.4 6.4
5.2 5.3 5.2 5.1 4.2 4.1 5.1 5.4 5.5 5.5 5.8 5.9 6.0 6.0 6.0 6.4 6.0 6.4 6.4 6.9 7.0 7.0 6.4 6.5 6.2 6.3 6.1 6.0 5.8 5.9 6.0 6.0 6.1 6.1 6.1 5.9 5.9 6.0 6.3 6.4 6.6 6.6 6.5 6.5
4.6 4.2 4.8 4.6 4.2 4.8 5.0 4.8 5.9 6.2 6.4 6.5 6.6 6.7 6.7 6.9 6.6 6.8 6.7 6.7 6.7 6.5 6.6 6.7 6.6 6.4 6.2 6.1 6.1 6.1 6.0 6.0 5.9 5.9 6.0 6.1 6.3 6.3 6.6 6.7 6.6 6.6 6.4 6.5
4.3 4.3 4.3 4.4 4.5 5.3 5.5 5.9 6.3 6.9 7.0 7.0 7.2 7.2 7.1 6.9 6.8 7.0 6.9 6.6 6.5 6.9 6.9 6.8 6.7 6.4 6.1 6.0 5.9 5.9 5.9 5.9 5.9 5.9 6.1 6.1 6.4 6.4 6.5 6.6 6.7 6.6 6.5 6.6
5.6 5.8 6.3 6.4 6.2 6.3 6.4 6.7 6.8 6.9 7.0 6.9 6.8 6.8 6.8 6.8 6.9 6.8 6.5 6.3 6.1 6.0 5.9 5.9 5.9 5.8 5.7 5.7 5.8 5.6 5.5 5.7 5.7 5.9 5.9 6.0 6.1 5.9 6.2 6.4 6.1 5.8 6.0 6.1
6.8 6.7 6.8 6.6 6.4 6.3 6.4 6.4 6.3 6.2 6.2 6.3 6.3 6.4 6.4 6.4 6.3 6.2 6.0 5.9 5.8 5.6 5.3 5.2 5.4 5.7 5.7 5.6 5.6 5.5 5.6 5.6 5.8 5.9 6.0 6.0 6.0 6.0 6.1 6.1 6.1 6.2 5.9 6.0
6.4 6.1 6.2 6.2 6.2 6.1 5.9 5.9 5.9 5.9 5.9 5.9 6.0 6.0 6.1 6.0 5.8 5.5 5.2 5.5 5.4 5.5 5.6 5.7 5.7 5.8 5.8 5.8 5.7 5.7 5.7 5.9 5.9 5.3 6.0 6.1 6.1 6.2 6.1 6.1 6.0 6.1 6.1 6.0
6.0 6.0 6.0 5.8 5.7 5.7 5.7 5.5 5.6 5.6 5.8 5.9 6.0 6.1 6.1 6.0 5.9 5.7 5.6 5.6 5.6 5.5 5.5 5.6 5.7 5.7 5.7 5.6 5.6 5.7 5.7 6.0 5.9 5.7 5.7 6.3 6.2 6.3 6.3 6.3 5.7 5.9 5.5 5.1
5.8 5.7 5.6 5.5 5.6 5.7 5.7 5.6 5.7 5.7 5.7 5.6 5.6 5.7 5.7 5.7 5.7 5.5 5.7 5.7 5.6 5.5 5.5 5.6 5.6 5.7 5.7 5.7 5.9 6.0 6.1 6.2 6.3 6.4 6.3 6.4 6.2 6.0 5.8 5.9 5.8 5.4 5.3 5.1
5.9 5.9 5.7 5.6 5.6 5.6 5.6 5.8 5.7 5.7 5.8 5.8 5.8 5.7 5.5 5.1 5.3 5.3 5.4 5.4 5.4 5.5 5.4 5.6 5.7 5.8 6.0 6.0 6.1 6.2 6.2 6.2 6.3 6.1 6.0 6.3 6.2 6.0 5.5 5.4 5.4 5.7 5.4 5.5
5.8 5.6 5.4 5.3 5.2 5.2 5.4 5.6 5.5 5.3 5.6 5.3 5.5 5.5 5.7 5.7 5.7 5.6 5.6 5.1 5.7 5.7 5.1 6.1 6.0 6.3 6.4 6.2 6.3 6.4 6.4 6.4 6.3 6.2 6.2 6.2 6.2 6.1 5.8 5.6 4.9 4.9 4.9 5.0
5.6 5.5 5.5 5.5 5.4 5.3 5.2 5.2 5.2 5.2 5.2 5.2 5.2 5.2 5.2 5.1 5.0 5.1 4.8 5.2 5.1 5.2 5.4 5.0 5.5 5.8 5.8 5.5 5.6 5.8 5.9 5.9 6.2 6.2 6.2 6.2 6.3 6.4 6.2 6.1 6.1 5.8 6.1 5.9
5.6 5.5 5.5 5.4 5.4 5.4 5.3 5.3 5.2 5.3 5.2 5.4 5.4 5.4 5.2 5.2 5.1 5.2 5.1 5.0 5.1 5.3 5.3 5.3 5.2 5.2 5.1 5.0 5.0 5.0 5.0 5.3 5.6 5.7 5.8 5.9 5.9 6.1 6.1 6.1 6.2 6.1 6.1 5.8
Wind_Speed
25 23 24 25 25 26 29 29 27 24 29 22 23 18 20 18 16 15 10 13 15 17 18 19 19 17 18 18 17 16 17 17 17 15 17 18 17 18 17 18 17 13 8 10
21 24 24 21 25 27 28 28 29 31 30 22 23 25 21 21 19 18 15 15 16 17 18 20 20 18 17 16 16 15 16 17 15 16 17 18 19 18 17 17 16 12 12 12
19 21 23 25 27 27 29 28 28 28 25 24 28 24 25 21 22 19 19 16 15 19 20 18 18 16 17 16 16 16 16 15 16 16 17 18 18 19 17 18 15 13 11 13
15 17 21 20 24 26 28 28 30 28 25 23 27 22 23 23 20 19 18 18 14 14 15 16 16 17 16 16 16 16 16 16 16 16 16 16 17 19 19 17 17 14 13 12
15 16 13 15 13 14 24 28 25 26 23 25 22 16 16 17 16 19 16 14 12 13 16 17 17 17 17 17 16 15 15 15 15 15 14 14 16 17 16 15 14 12 11 13
10 19 18 6 8 8 10 14 24 25 25 24 19 15 16 10 12 14 10 10 11 14 15 17 17 18 18 17 16 15 15 14 13 12 12 12 12 12 13 15 12 12 12 11
17 13 9 6 7 2 6 5 21 22 26 22 21 15 3 5 8 6 6 8 11 13 14 15 16 16 16 16 14 13 12 11 11 12 13 10 13 10 12 13 9 12 13 9
12 13 16 6 4 5 6 12 12 11 12 15 12 9 10 10 12 14 14 15 16 15 14 14 15 14 15 14 12 12 13 12 10 8 6 7 9 10 9 8 8 10 11 8
6 4 6 4 2 2 3 6 10 0 6 10 13 12 15 16 17 17 15 15 16 16 16 13 14 13 14 13 12 12 12 11 10 10 8 5 7 8 7 7 6 6 6 6
10 5 8 11 11 10 14 7 4 9 12 14 16 16 13 15 16 17 16 15 15 16 16 14 11 11 13 11 11 11 10 9 8 8 9 5 4 4 4 4 4 4 5 6
13 12 13 11 12 12 12 11 10 15 16 15 14 13 12 13 13 12 15 14 13 12 13 13 12 12 13 13 13 11 11 10 9 8 8 7 7 4 1 5 3 5 5 4
8 12 12 10 10 8 10 9 10 15 17 16 16 15 14 13 13 11 11 12 12 12 11 11 11 11 11 11 11 11 11 9 8 9 8 8 7 6 12 9 5 5 5 2
7 11 17 14 10 7 5 6 10 15 15 15 15 13 14 13 13 10 11 12 11 12 10 11 12 11 9 7 14 12 9 9 7 6 6 7 6 6 7 6 10 11 10 11
14 17 15 13 8 11 4 5 10 12 11 11 12 12 11 11 10 10 9 9 9 10 8 9 10 12 10 9 12 12 9 5 6 5 6 6 6 5 5 5 6 6 9 8
16 17 15 12 7 7 3 2 11 8 9 9 9 9 10 10 10 8 6 5 6 8 8 8 10 11 12 12 12 11 8 6 6 7 7 7 7 6 6 7 7 8 8 6
15 13 11 11 8 5 3 5 9 6 5 3 6 8 6 5 5 4 3 3 2 6 7 7 9 12 11 10 9 7 4 5 6 6 7 7 7 7 7 7 8 8 9 9
15 8 10 7 6 3 6 5 6 6 5 5 4 2 1 2 3 1 2 1 3 5 6 7 8 8 8 9 8 5 7 8 1 6 7 6 6 7 7 7 7 7 7 7
11 14 11 8 6 3 6 4 6 7 7 6 3 4 3 2 3 2 1 2 7 8 9 8 6 5 5 7 7 6 6 8 7 6 5 6 6 6 6 7 7 7 7 8
11 9 7 7 7 6 7 7 8 9 9 8 9 10 9 9 7 3 3 7 9 8 7 8 4 4 7 4 4 5 5 5 4 3 4 4 5 6 6 7 7 7 6 8
10 10 10 10 10 10 9 9 9 9 9 9 9 9 10 8 8 9 9 10 9 8 7 8 6 6 6 4 5 2 3 4 4 4 5 6 6 6 6 4 6 8 8 6
11 10 11 10 10 10 10 8 9 10 10 9 10 9 9 9 8 5 7 8 9 8 9 3 5 6 5 3 5 2 3 3 5 5 5 7 5 6 7 8 8 8 7 9
9 10 11 10 9 10 10 9 9 9 9 10 9 9 8 8 7 9 9 6 6 5 4 5 7 9 5 8 1 0 0 2 3 4 4 4 5 6 5 9 9 8 9 9
8 8 8 7 7 6 7 7 8 8 8 8 7 7 6 5 6 3 5 2 5 5 3 8 7 3 3 3 1 1 2 3 3 3 3 3 5 6 7 7 7 8 6 4
7 7 6 5 5 6 5 4 5 5 6 5 6 5 5 4 4 3 4 5 4 2 4 6 6 4 8 2 2 2 3 4 4 4 4 1 6 6 7 7 6 5 6 8
6 5 4 6 5 6 5 4 3 2 3 2 2 2 1 4 4 4 4 2 6 6 5 11 8 6 6 5 4 4 4 4 4 5 4 5 6 8 8 8 7 8 9 8
8 7 5 5 5 5 5 5 6 4 5 5 5 4 3 3 2 3 2 0 3 1 6 3 7 8 7 6 5 5 5 5 5 7 5 5 5 5 8 8 8 8 8 9
6 8 6 6 7 6 7 6 6 7 6 8 8 6 5 5 5 5 5 7 7 6 6 6 6 6 6 8 7 7 7 7 6 7 7 6 6 6 6 7 7 7 7 8
Wind_Direction
230 244 223 221 210 225 234 240 239 239 241 227 239 232 249 258 258 268 249 220 200 197 198 194 197 199 202 206 203 204 202 201 201 199 203 206 194 185 183 185 189 206 195 195
234 234 241 241 229 230 225 233 240 244 247 242 225 241 242 247 251 251 246 224 205 199 199 197 196 196 192 195 197 198 195 201 194 194 203 207 200 198 190 192 193 194 189 205
238 225 238 239 240 233 234 231 235 237 238 235 243 238 236 240 242 244 245 229 209 205 201 196 191 188 186 185 184 187 195 190 194 197 203 210 203 201 194 200 202 210 203 215
238 230 237 244 242 237 243 236 232 235 241 229 236 230 232 229 238 240 240 244 215 204 198 192 184 177 176 177 181 184 186 191 192 193 203 204 205 202 203 206 211 213 212 227
235 230 237 228 217 258 243 238 240 235 232 234 221 227 252 245 238 238 243 241 222 197 183 181 176 170 170 170 171 177 187 191 188 194 201 201 204 206 210 206 211 212 220 229
202 244 236 52 21 353 327 256 236 234 218 225 230 233 244 211 217 229 233 219 193 180 170 176 171 164 163 163 165 174 183 186 184 187 199 202 210 214 201 208 214 218 212 218
229 229 211 31 342 145 211 289 321 242 235 226 230 238 327 186 183 149 160 158 155 154 161 158 153 152 151 153 164 170 167 162 167 180 189 188 196 211 202 210 218 216 229 234
228 216 226 5 209 236 354 326 312 276 252 239 215 169 150 137 126 120 125 127 124 120 129 136 138 145 140 142 144 152 151 153 162 164 178 191 185 203 203 195 216 236 232 236
241 190 86 77 83 50 29 360 349 77 153 155 161 152 143 136 121 115 116 118 120 120 117 117 126 136 135 140 147 148 142 141 147 150 164 162 182 190 196 198 212 226 231 228
167 126 94 101 82 62 70 71 55 58 92 107 115 114 117 106 107 108 101 99 106 109 108 106 104 100 112 119 122 127 124 132 133 140 115 154 188 202 209 187 209 228 227 213
102 127 110 79 69 72 76 71 74 79 85 86 83 78 78 76 79 84 90 87 82 86 96 99 98 103 113 120 125 117 133 131 115 106 111 101 81 21 14 69 23 244 176 181
163 148 115 89 59 41 63 77 70 71 63 54 62 64 66 66 67 58 68 83 88 90 89 93 96 101 117 126 120 127 120 133 140 144 161 165 157 132 54 39 20 31 37 48
114 110 98 95 52 38 63 66 66 72 74 72 55 54 59 56 46 50 65 81 86 89 115 122 118 121 117 144 130 112 128 131 140 153 155 153 160 165 151 96 75 54 46 53
115 117 83 61 59 314 42 96 87 83 75 74 77 71 61 51 53 53 54 73 81 90 104 118 120 117 120 109 107 117 115 68 148 142 158 161 166 174 167 163 150 125 54 76
62 77 91 99 75 358 279 177 82 58 62 63 56 55 59 48 46 36 63 106 120 115 115 139 131 119 128 137 134 142 153 156 154 155 157 157 171 169 177 168 159 147 138 136
68 53 70 95 146 222 63 38 86 97 81 78 76 59 48 48 13 49 42 24 154 126 147 147 138 142 152 150 157 150 134 86 179 165 153 168 167 176 173 172 169 172 179 162
77 69 55 346 19 46 65 48 57 64 62 56 79 138 135 119 173 90 328 87 133 133 131 140 133 143 157 172 188 178 165 155 143 159 172 174 177 185 178 179 185 183 188 156
155 160 165 180 173 131 91 78 74 77 61 54 55 69 105 136 87 63 28 143 112 95 97 109 119 136 159 175 191 179 182 161 187 184 165 177 184 187 188 195 190 186 184 125
105 103 112 108 104 88 78 69 66 57 51 52 61 64 60 62 66 92 104 100 121 114 95 104 99 143 122 82 277 184 200 176 203 190 199 126 183 204 199 203 198 194 183 160
90 96 93 81 65 60 68 68 63 64 56 58 65 68 77 68 70 82 80 69 53 81 102 117 133 108 105 135 279 189 167 204 201 191 206 206 207 201 212 219 194 188 197 188
83 78 72 66 69 60 63 60 61 53 51 49 57 62 65 66 58 57 109 82 82 78 88 81 77 113 105 129 246 136 189 202 217 200 195 223 199 233 211 196 191 199 195 213
68 68 65 57 64 66 57 56 55 55 52 54 51 50 59 57 76 70 50 72 99 303 97 98 84 28 64 296 51 57 154 224 244 220 208 225 243 220 207 211 197 206 213 213
54 49 53 43 48 54 65 54 58 50 52 48 46 46 44 41 22 34 106 84 120 36 72 86 110 124 276 273 18 238 248 247 247 245 274 272 255 238 224 223 227 233 222 223
31 40 32 27 41 48 36 54 50 52 46 39 38 41 4 12 116 58 119 120 108 269 16 93 135 186 269 304 301 310 295 279 276 275 272 11 269 257 247 241 237 242 233 234
11 355 354 3 347 43 36 33 264 79 26 43 78 90 93 81 12 21 348 77 141 241 238 143 171 218 260 280 281 287 285 271 292 309 292 287 285 273 252 254 247 233 226 240
13 356 350 1 2 2 4 10 5 21 7 7 4 21 1 355 343 277 320 152 295 213 273 186 209 201 249 266 271 269 272 265 226 227 260 284 286 280 267 239 242 223 230 250
65 12 33 37 28 18 17 348 333 352 2 1 337 343 354 330 338 305 286 290 293 294 286 280 273 230 252 274 264 241 249 258 249 273 277 269 266 266 255 249 245 250 253 250